This demonstration page uses our WeatherBlox Daily Observations layout. Learn more.

Left ArrowRight Arrow

Hourly Observations for December 15, 2015

Temp ( °F °C ) Dew Point ( °F °C ) Humidity (%) Winds ( mph kmh ) Pressure ( in mb ) Visibility ( mi km ) Precip ( " mm )
12:51 am 00:51 Mostly Cloudy 33 0.6 30 -1.1 89 89 NNE 6 9 29.82 1010 10 16 N/A
1:51 am 01:51 Mostly Cloudy 33 0.6 29 -1.7 85 85 N N/A 29.83 1010 10 16 N/A
2:51 am 02:51 Clear 31 -0.6 28 -2.2 89 89 N N/A 29.84 1011 10 16 N/A
3:51 am 03:51 Mostly Cloudy 30 -1.1 28 -2.2 92 92 NNE 5 7 29.84 1010 10 16 N/A
4:51 am 04:51 Mostly Cloudy 29 -1.7 27 -2.8 92 92 N N/A 29.85 1011 10 16 N/A
5:51 am 05:51 Partly Cloudy 28 -2.2 26 -3.3 92 92 SSE 5 7 29.88 1012 10 16 N/A
6:51 am 06:51 Cloudy 29 -1.7 27 -2.8 92 92 N N/A 29.89 1012 10 16 N/A
7:51 am 07:51 Mostly Cloudy 30 -1.1 27 -2.8 88 88 N N/A 29.91 1013 10 16 N/A
8:51 am 08:51 Sunny 34 1.1 27 -2.8 76 76 ESE 5 7 29.92 1013 10 16 N/A
9:51 am 09:51 Sunny 38 3.3 27 -2.8 65 65 VRB 3 6 29.94 1014 10 16 N/A
10:51 am 10:51 Sunny 44 6.7 27 -2.8 51 51 WNW 8 13 29.93 1013 10 16 N/A
11:51 am 11:51 Sunny 46 7.8 25 -3.9 44 44 WNW 14 22 29.90 1013 10 16 N/A
12:51 pm 12:51 Mostly Sunny 47 8.3 22 -5.6 37 37 W 14 22 29.88 1012 10 16 N/A
1:51 pm 13:51 Mostly Sunny 49 9.4 18 -7.8 29 29 NW 14 22 29.87 1012 10 16 N/A
2:51 pm 14:51 Sunny 48 8.9 18 -7.8 30 30 WNW 12 19 29.87 1012 10 16 N/A
3:51 pm 15:51 Sunny 48 8.9 17 -8.3 29 29 WNW 14 22 29.89 1012 10 16 N/A
4:51 pm 16:51 Sunny 45 7.2 17 -8.3 33 33 NW 13 20 29.92 1013 10 16 N/A
5:51 pm 17:51 Clear 42 5.6 19 -7.2 40 40 NNW 12 19 29.94 1014 10 16 N/A
6:51 pm 18:51 Clear 40 4.4 19 -7.2 43 43 NNW 9 15 29.96 1015 10 16 N/A
7:51 pm 19:51 Clear 37 2.8 21 -6.1 52 52 WNW 7 11 29.99 1016 10 16 N/A
8:51 pm 20:51 Clear 33 0.6 22 -5.6 64 64 NW 6 9 30.01 1016 10 16 N/A
9:51 pm 21:51 Clear 32 undefined 22 -5.6 66 66 NW 3 6 30.01 1016 10 16 N/A
10:51 pm 22:51 Clear 32 undefined 21 -6.1 64 64 SSE 7 11 30.01 1016 10 16 N/A
11:51 pm 23:51 Clear 27 -2.8 22 -5.6 81 81 E 3 6 30.01 1016 10 16 N/A

Powered by AerisWeather